Weather History for KCWI - March, 2013

Change the Weather History Date:

Monday, March 11, 2013

  Actual Average Record
Temperature  
Mean Temperature 30 °F -  
Max Temperature 33 °F 45 °F 74 °F (1972)
Min Temperature 28 °F 27 °F 2 °F (1979)
Degree Days  
Heating Degree Days 34    
Moisture  
Dew Point 28 °F    
Average Humidity 83    
Maximum Humidity 93    
Minimum Humidity 69    
Precipitation  
Precipitation 0.04 in - - ()
Sea Level Pressure  
Sea Level Pressure 29.69 in    
Wind  
Wind Speed 9 mph (WNW)    
Max Wind Speed 25 mph    
Max Gust Speed 31 mph    
Visibility 5 miles    
Events      
Averages and records for this station are not official NWS values.
T = Trace of Precipitation, MM = Missing Value Source: NWS Daily Summary

Daily Weather History Graph

Daily Weather History Graph

Search for Another Location

Airport or City:

Trip Planner

Search our weather history database for the weather conditions in past years. The results will help you decide how hot, cold, wet, or windy it might be!

Date:

Astronomy

Mar. 11, 2013 Rise Set
Actual Time 7:19 AM CDT 7:03 PM CDT
Civil Twilight 6:51 AM CDT 7:31 PM CDT
Nautical Twilight 6:19 AM CDT 8:03 PM CDT
Astronomical Twilight 5:46 AM CDT 8:36 PM CDT
Moon 6:52 AM CDT (3/11) 7:16 PM CDT (3/11)
Length of Visible Light 12h 39m
Length of Day
11h 44m
Waning Crescent, 0% of the Moon is Illuminated
Mar 11
Waning Crescent
Mar 11
New
Mar 19
First Quarter
Mar 27
Full
Apr 2
Last Quarter

Hourly Weather History & Observations

Time (CDT) Temp. Windchill Dew Point Humidity Pressure Visibility Wind Dir Wind Speed Gust Speed Precip Events Conditions
12:15 AM 33.8 °F 28.6 °F 30.2 °F 87% 29.65 in 1.0 mi NW 5.8 mph - N/A   Overcast
12:35 AM 33.8 °F 30.8 °F 30.2 °F 87% 29.66 in 1.0 mi WNW 3.5 mph - N/A   Overcast
12:55 AM 33.8 °F - 30.2 °F 87% 29.65 in 0.5 mi Calm Calm - N/A   Overcast
1:15 AM 33.8 °F - 30.2 °F 87% 29.66 in 0.5 mi Calm Calm - N/A   Overcast
1:35 AM 33.8 °F - 30.2 °F 87% 29.66 in 0.2 mi Calm Calm - N/A   Overcast
1:55 AM 33.8 °F - 30.2 °F 87% 29.66 in 0.2 mi Calm Calm - N/A   Overcast
2:15 AM 33.8 °F 30.8 °F 30.2 °F 87% 29.65 in 0.2 mi NNW 3.5 mph - N/A   Overcast
2:35 AM 33.8 °F 29.6 °F 30.2 °F 87% 29.65 in 0.5 mi NNW 4.6 mph - N/A   Overcast
2:55 AM 33.8 °F 27.7 °F 30.2 °F 87% 29.64 in 0.2 mi North 6.9 mph - N/A   Overcast
3:15 AM 33.8 °F - 30.2 °F 87% 29.64 in 0.5 mi Calm Calm - N/A   Overcast
3:35 AM 33.8 °F 29.6 °F 30.2 °F 87% 29.63 in 0.5 mi North 4.6 mph - N/A   Overcast
3:55 AM 33.8 °F - 30.2 °F 87% 29.62 in 0.5 mi Calm Calm - N/A   Overcast
4:15 AM 33.8 °F - 30.2 °F 87% 29.61 in 0.5 mi Calm Calm - N/A   Overcast
4:35 AM 33.8 °F - 30.2 °F 87% 29.62 in 0.2 mi Calm Calm - N/A   Overcast
4:55 AM 33.8 °F 28.6 °F 30.2 °F 87% 29.61 in 0.2 mi SW 5.8 mph - N/A   Overcast
5:15 AM 33.8 °F 29.6 °F 30.2 °F 87% 29.61 in 0.2 mi West 4.6 mph - N/A   Mostly Cloudy
5:35 AM 33.8 °F 29.6 °F 30.2 °F 87% 29.62 in 0.2 mi WNW 4.6 mph - N/A   Unknown
5:55 AM 33.8 °F 28.6 °F 30.2 °F 87% 29.63 in 0.2 mi WNW 5.8 mph - N/A   Unknown
6:15 AM 33.8 °F 27.7 °F 30.2 °F 87% 29.64 in 0.2 mi WNW 6.9 mph - N/A   Unknown
6:35 AM 33.8 °F 29.6 °F 30.2 °F 87% 29.64 in 0.5 mi WNW 4.6 mph - N/A   Overcast
6:55 AM 33.8 °F 29.6 °F 30.2 °F 87% 29.65 in 0.5 mi WNW 4.6 mph - 0.01 in   Overcast
7:15 AM 33.8 °F 29.6 °F 30.2 °F 87% 29.65 in 0.5 mi WNW 4.6 mph - N/A   Overcast
7:35 AM 33.8 °F 29.6 °F 30.2 °F 87% 29.65 in 0.2 mi NW 4.6 mph - N/A   Overcast
7:55 AM 33.8 °F 28.6 °F 30.2 °F 87% 29.64 in 0.8 mi NW 5.8 mph - 0.01 in   Overcast
8:15 AM 32.0 °F 26.4 °F 28.4 °F 87% 29.64 in 1.2 mi NNW 5.8 mph - N/A   Overcast
8:35 AM 32.0 °F 25.6 °F 30.2 °F 93% 29.64 in 1.8 mi NNW 6.9 mph - N/A   Overcast
8:55 AM 32.0 °F 25.6 °F 30.2 °F 93% 29.64 in 2.0 mi NNW 6.9 mph - 0.01 in   Overcast
9:15 AM 33.8 °F 27.0 °F 30.2 °F 87% 29.64 in 1.8 mi NNW 8.1 mph - N/A   Overcast
9:35 AM 33.8 °F 27.0 °F 30.2 °F 87% 29.63 in 1.8 mi North 8.1 mph - N/A   Overcast
9:55 AM 33.8 °F 27.0 °F 30.2 °F 87% 29.63 in 2.0 mi NNW 8.1 mph - 0.01 in   Overcast
10:15 AM 33.8 °F 26.4 °F 30.2 °F 87% 29.64 in 5.0 mi NNW 9.2 mph - N/A   Overcast
10:35 AM 33.8 °F 27.0 °F 30.2 °F 87% 29.64 in 7.0 mi NNW 8.1 mph - N/A   Overcast
10:55 AM 33.8 °F 27.0 °F 30.2 °F 87% 29.65 in 9.0 mi NW 8.1 mph - N/A   Overcast
11:15 AM 33.8 °F 27.7 °F 30.2 °F 87% 29.65 in 10.0 mi NW 6.9 mph - N/A   Overcast
11:35 AM 33.8 °F 26.4 °F 30.2 °F 87% 29.65 in 8.0 mi WNW 9.2 mph - N/A   Overcast
11:55 AM 33.8 °F 26.4 °F 30.2 °F 87% 29.65 in 3.0 mi NW 9.2 mph - N/A   Overcast
12:15 PM 33.8 °F 25.3 °F 30.2 °F 87% 29.65 in 3.0 mi NW 11.5 mph - N/A   Overcast
12:35 PM 33.8 °F 23.5 °F 30.2 °F 87% 29.65 in 3.0 mi WNW 16.1 mph - N/A   Overcast
12:55 PM 33.8 °F 24.3 °F 30.2 °F 87% 29.66 in 3.0 mi WNW 13.8 mph - N/A   Overcast
1:15 PM 33.8 °F 23.2 °F 28.4 °F 81% 29.66 in 10.0 mi WNW 17.3 mph 20.7 mph N/A   Overcast
1:35 PM 33.8 °F 23.5 °F 28.4 °F 81% 29.66 in 10.0 mi WNW 16.1 mph 21.9 mph N/A   Overcast
1:55 PM 33.8 °F 24.3 °F 28.4 °F 81% 29.65 in 6.0 mi WNW 13.8 mph - N/A   Overcast
2:15 PM 32.0 °F 20.5 °F 28.4 °F 87% 29.65 in 10.0 mi WNW 18.4 mph - N/A   Overcast
2:35 PM 33.8 °F 23.5 °F 28.4 °F 81% 29.65 in 10.0 mi WNW 16.1 mph 24.2 mph N/A   Overcast
2:55 PM 33.8 °F 22.5 °F 28.4 °F 81% 29.65 in 10.0 mi WNW 19.6 mph 24.2 mph N/A   Overcast
3:15 PM 33.8 °F 21.3 °F 28.4 °F 81% 29.66 in 8.0 mi West 24.2 mph 27.6 mph N/A   Overcast
3:35 PM 33.8 °F 21.0 °F 28.4 °F 81% 29.67 in 10.0 mi WNW 25.3 mph - N/A   Overcast
3:55 PM 33.8 °F 22.2 °F 26.6 °F 75% 29.68 in 4.0 mi WNW 20.7 mph - N/A   Overcast
4:15 PM 32.0 °F 19.2 °F 26.6 °F 80% 29.69 in 8.0 mi WNW 23.0 mph - N/A   Mostly Cloudy
4:35 PM 33.8 °F 22.5 °F 26.6 °F 75% 29.70 in 10.0 mi WNW 19.6 mph 25.3 mph N/A   Overcast
4:55 PM 33.8 °F 22.2 °F 26.6 °F 75% 29.70 in 10.0 mi WNW 20.7 mph 25.3 mph N/A   Overcast
5:15 PM 33.8 °F 22.2 °F 26.6 °F 75% 29.71 in 10.0 mi WNW 20.7 mph 26.5 mph N/A   Overcast
5:35 PM 32.0 °F 20.1 °F 26.6 °F 80% 29.72 in 10.0 mi WNW 19.6 mph 25.3 mph N/A   Overcast
6:15 PM 32.0 °F 19.2 °F 26.6 °F 80% 29.75 in 10.0 mi WNW 23.0 mph 27.6 mph N/A   Overcast
6:35 PM 32.0 °F 19.2 °F 26.6 °F 80% 29.76 in 10.0 mi WNW 23.0 mph - N/A   Overcast
6:55 PM 32.0 °F 18.6 °F 24.8 °F 75% 29.77 in 10.0 mi WNW 25.3 mph 31.1 mph N/A   Overcast
7:15 PM 32.0 °F 20.5 °F 24.8 °F 75% 29.78 in 10.0 mi WNW 18.4 mph 24.2 mph N/A   Overcast
7:35 PM 30.2 °F 18.1 °F 24.8 °F 80% 29.78 in 10.0 mi WNW 18.4 mph 27.6 mph N/A   Overcast
7:55 PM 30.2 °F 16.8 °F 24.8 °F 80% 29.79 in 10.0 mi WNW 23.0 mph - N/A   Overcast
8:15 PM 30.2 °F 18.1 °F 24.8 °F 80% 29.81 in 10.0 mi WNW 18.4 mph 25.3 mph N/A   Overcast
8:35 PM 30.2 °F 18.1 °F 24.8 °F 80% 29.82 in 10.0 mi WNW 18.4 mph - N/A   Overcast
8:55 PM 30.2 °F 18.5 °F 24.8 °F 80% 29.82 in 10.0 mi West 17.3 mph 20.7 mph N/A   Overcast
9:15 PM 30.2 °F 17.4 °F 24.8 °F 80% 29.83 in 10.0 mi WNW 20.7 mph - N/A   Overcast
9:35 PM 30.2 °F 18.5 °F 24.8 °F 80% 29.84 in 10.0 mi WNW 17.3 mph 25.3 mph N/A   Overcast
9:55 PM 30.2 °F 17.8 °F 24.8 °F 80% 29.85 in 10.0 mi WNW 19.6 mph - N/A   Overcast
10:15 PM 30.2 °F 17.8 °F 24.8 °F 80% 29.86 in 10.0 mi WNW 19.6 mph 26.5 mph N/A   Overcast
10:35 PM 30.2 °F 16.8 °F 23.0 °F 75% 29.87 in 10.0 mi West 23.0 mph 28.8 mph N/A   Overcast
10:55 PM 30.2 °F 17.4 °F 21.2 °F 69% 29.87 in 10.0 mi West 20.7 mph 27.6 mph N/A   Overcast
11:15 PM 30.2 °F 17.1 °F 23.0 °F 75% 29.87 in 10.0 mi West 21.9 mph - N/A   Overcast
11:35 PM 28.4 °F 15.1 °F 23.0 °F 80% 29.88 in 10.0 mi West 20.7 mph 26.5 mph N/A   Overcast
11:55 PM 28.4 °F 15.4 °F 21.2 °F 74% 29.88 in 10.0 mi West 19.6 mph 23.0 mph N/A   Overcast